"Pseudo-MPEC" for P12bzJU

Created 2025 Jul 7 0:35:08 UT using Find_Orb

Click here for an explanation of pseudo-MPECs

 
 Astrometry: 
     P12bzJU  C2025 05 26.58110220 40 32.361-30 45 24.44   ~74Mo 21.81wXNEOCPF51
     P12bzJU  C2025 05 26.58824520 40 33.074-30 45 27.62   ~74Mo 21.79wXNEOCPF51
     P12bzJU  C2025 05 26.59666620 40 33.961-30 45 31.54   ~74Mo 22.18wXNEOCPF51
     P12bzJU  C2025 05 26.60446320 40 34.746-30 45 35.20   ~74Mo 21.67wXNEOCPF51
     P12bzJU* C2025 07 04.51616921 26 07.788-37 01 33.59   ~74KK 21.22wXNEOCPF51
     P12bzJU  C2025 07 04.52661821 26 07.984-37 01 40.11   ~74KK 21.29wXNEOCPF51
     P12bzJU  C2025 07 04.53706421 26 08.181-37 01 46.69   ~74KK 21.03wXNEOCPF51
     P12bzJU  C2025 07 04.54746121 26 08.381-37 01 53.27   ~74KK 21.29wXNEOCPF51
     P12bzJU 2C2025 07 05.50374421 26 30.765-37 11 52.19   ~76NK 21.2 GWNEOCPT12
     P12bzJU 2C2025 07 05.50476221 26 30.776-37 11 52.79   ~76NK 21.1 GWNEOCPT12
     P12bzJU 2C2025 07 05.50581021 26 30.795-37 11 53.53   ~76NK 21.2 GWNEOCPT12

Station data:
(F51) Pan-STARRS 1, Haleakala  (N20.707234 W156.255910)  US/Hawaii.
   Observers J. Bulger, T. Lowe, A. Schultz, M. Willman. Measurers K.
   Chambers, S. Chastel, T. de Boer, L. Denneau, J. Fairlamb, H. Flewelling,
   M. Huber, C.-C. Lin, E. Magnier, Y. Ramanjooloo, R. Wainscoat, R. Weryk.
   1.8-m Ritchey-Chrétien + CCD.
(T12) Mauna Kea-UH/Tholen NEO Follow-Up (2.24-m)  (N19.822991 W155.469434)
   US/Hawaii.  Observer Y. Ramanjooloo. 2.24-m f/10.1 University of Hawaii
   reflector.

Orbital elements:  P12bzJU
   Perihelion 2025 Jun 15.79652 +/- 0.0608 TT = 19:06:59 (JD 2460842.29652)
Epoch 2025 Jul  5.0 TT = JDT 2460861.5   Earth MOID: 0.7020   Ju: 0.7480
M   3.27643701 +/- 0.006            (J2000 ecliptic)             AutoNEOCP
n   0.17061682 +/- 0.000275         Peri.  229.79059 +/- 0.041
a   3.21949786 +/- 0.00346          Node    55.16298 +/- 0.014
e   0.4734615 +/- 0.000495          Incl.   10.69268 +/- 0.0036
P   5.77673                H 19.53  G  0.15   U  7.2
q 1.69518944 +/- 0.000247    Q 4.74380628 +/- 0.00669
From 11 observations 2025 May 26-July 5; mean residual 0".07
Residuals in arcseconds: 
250526 F51  .20+  .07-    250704 F51  .00   .08-    250705 T12  .04+  .00     
250526 F51  .13-  .06+    250704 F51  .02-  .03+    250705 T12  .03-  .04+    
250526 F51  .09+  .04+    250704 F51  .02-  .05+    250705 T12  .01-  .04-    
250526 F51  .17-  .03-    250704 F51  .04+  .00     

Ephemerides (geocentric):
Date (UTC) HH   RA             Dec           delta  r     elong  mag " sig PA
---- --------  ------------   ------------  ------ ------ -----  --- --------
2025 07 07 01  21 27 01.293   -37 27 35.77  .76568 1.7061 146.0 21.1 .210  57
2025 07 07 02  21 27 02.042   -37 28 01.38  .76560 1.7062 146.1 21.1 .215  57
2025 07 07 03  21 27 02.785   -37 28 26.99  .76553 1.7062 146.1 21.1 .220  57
2025 07 07 04  21 27 03.525   -37 28 52.59  .76545 1.7063 146.1 21.1 .226  57
2025 07 07 05  21 27 04.260   -37 29 18.17  .76537 1.7063 146.1 21.1 .231  57
2025 07 07 06  21 27 04.990   -37 29 43.74  .76530 1.7063 146.2 21.1 .236  57
2025 07 07 07  21 27 05.717   -37 30 09.30  .76522 1.7064 146.2 21.1 .242  57
2025 07 07 08  21 27 06.438   -37 30 34.85  .76515 1.7064 146.2 21.1 .247  57
2025 07 07 09  21 27 07.156   -37 31 00.39  .76508 1.7065 146.2 21.1 .252  57
2025 07 07 10  21 27 07.869   -37 31 25.91  .76500 1.7065 146.3 21.1 .258  57
2025 07 07 11  21 27 08.577   -37 31 51.43  .76493 1.7066 146.3 21.1 .263  57
2025 07 07 12  21 27 09.281   -37 32 16.93  .76485 1.7066 146.3 21.1 .269  57
2025 07 07 13  21 27 09.981   -37 32 42.42  .76478 1.7066 146.3 21.1 .274  57
2025 07 07 14  21 27 10.676   -37 33 07.89  .76471 1.7067 146.4 21.1 .280  57
2025 07 07 15  21 27 11.367   -37 33 33.36  .76463 1.7067 146.4 21.1 .285  57
2025 07 07 16  21 27 12.054   -37 33 58.81  .76456 1.7068 146.4 21.1 .291  57
2025 07 07 17  21 27 12.736   -37 34 24.25  .76449 1.7068 146.4 21.1 .296  57
2025 07 07 18  21 27 13.413   -37 34 49.68  .76442 1.7069 146.5 21.1 .302  57
2025 07 07 19  21 27 14.087   -37 35 15.10  .76434 1.7069 146.5 21.1 .307  57
2025 07 07 20  21 27 14.756   -37 35 40.50  .76427 1.7070 146.5 21.1 .313  57
2025 07 07 21  21 27 15.420   -37 36 05.89  .76420 1.7070 146.5 21.1 .318  57
2025 07 07 22  21 27 16.080   -37 36 31.27  .76413 1.7070 146.6 21.1 .324  57
2025 07 07 23  21 27 16.736   -37 36 56.64  .76406 1.7071 146.6 21.1 .329  57
2025 07 08 00  21 27 17.387   -37 37 21.99  .76399 1.7071 146.6 21.1 .335  57
2025 07 08 01  21 27 18.034   -37 37 47.33  .76392 1.7072 146.6 21.1 .340  57
2025 07 08 02  21 27 18.676   -37 38 12.66  .76385 1.7072 146.7 21.1 .346  57
2025 07 08 03  21 27 19.314   -37 38 37.98  .76378 1.7073 146.7 21.1 .352  57
2025 07 08 04  21 27 19.948   -37 39 03.28  .76371 1.7073 146.7 21.1 .357  57
2025 07 08 05  21 27 20.577   -37 39 28.57  .76364 1.7074 146.7 21.1 .363  57
2025 07 08 06  21 27 21.202   -37 39 53.85  .76357 1.7074 146.8 21.1 .369  57
2025 07 08 07  21 27 21.823   -37 40 19.11  .76350 1.7074 146.8 21.1 .374  57
2025 07 08 08  21 27 22.439   -37 40 44.37  .76343 1.7075 146.8 21.1 .380  57
2025 07 08 09  21 27 23.050   -37 41 09.60  .76337 1.7075 146.9 21.1 .386  57
2025 07 08 10  21 27 23.658   -37 41 34.83  .76330 1.7076 146.9 21.1 .391  57
2025 07 08 11  21 27 24.261   -37 42 00.04  .76323 1.7076 146.9 21.1 .397  57
2025 07 08 12  21 27 24.859   -37 42 25.24  .76316 1.7077 146.9 21.1 .403  57
2025 07 08 13  21 27 25.454   -37 42 50.42  .76310 1.7077 147.0 21.1 .408  57
2025 07 08 14  21 27 26.043   -37 43 15.59  .76303 1.7078 147.0 21.1 .414  57
2025 07 08 15  21 27 26.629   -37 43 40.75  .76296 1.7078 147.0 21.1 .420  57
2025 07 08 16  21 27 27.210   -37 44 05.90  .76290 1.7079 147.0 21.1 .426  57
2025 07 08 17  21 27 27.787   -37 44 31.03  .76283 1.7079 147.1 21.1 .431  57
2025 07 08 18  21 27 28.359   -37 44 56.15  .76276 1.7079 147.1 21.1 .437  57
2025 07 08 19  21 27 28.927   -37 45 21.25  .76270 1.7080 147.1 21.1 .443  57
2025 07 08 20  21 27 29.490   -37 45 46.34  .76263 1.7080 147.1 21.1 .449  57
2025 07 08 21  21 27 30.050   -37 46 11.42  .76257 1.7081 147.2 21.1 .455  58
2025 07 08 22  21 27 30.605   -37 46 36.48  .76250 1.7081 147.2 21.1 .461  58
2025 07 08 23  21 27 31.155   -37 47 01.53  .76244 1.7082 147.2 21.1 .466  58
2025 07 09 00  21 27 31.701   -37 47 26.56  .76237 1.7082 147.2 21.1 .472  58